Flag for USA

Past Weather in Fairfield Industrial Park, Ohio, USA — Yesterday and Last 2 Weeks

Now
43 °F

Partly sunny.


Feels Like: 40 °F
Forecast: 40 / 33 °F
Wind: 5 mph from Southwest

Location: Cincinnati Municipal Airport Lunken Field

Current Time: Jan 26, 2020 at 5:31:37 pm

Latest Report: Jan 26, 2020 at 4:53 pm


Visibility: 10 mi

Pressure: 29.95 "Hg

Humidity: 60%

Dew Point: 30 °F

Location of Fairfield Industrial ParkLocation

Past Weather in Fairfield Industrial Park — Graph

°F

Fairfield Industrial Park Temperature Yesterday

Maximum temperature yesterday: 40 °F (at 1:53 am)
Minimum temperature yesterday: 34 °F (at 10:53 pm)
Average temperature yesterday: 37 °F

High & Low Weather Summary for the Past Weeks

 TemperatureHumidityPressure
High62 °F (Jan 11, 3:53 pm)100% (Jan 11, 7:53 pm)30.82 "Hg (Jan 11, 7:53 pm)
Low14 °F (Jan 22, 6:53 am)32% (Jan 23, 3:53 pm)29.61 "Hg (Jan 11, 8:53 pm)
Average36 °F77%30.24 "Hg
* Reported Jan 11 3:53 pm — Jan 26 3:53 pm, Fairfield Industrial Park. Weather by CustomWeather, © 2020

Note: Actual official high and low records may vary slightly from our data, if they occured in-between our weather recording intervals... More about our weather records

Fairfield Industrial Park Weather History for the Previous 24 Hours

Scroll right to see more
 ConditionsComfort  
Time TempWeatherWind HumidityBarometerVisibility
3:53 pm
Sun, Jan 26
43 °FBroken clouds.12 mph62%29.96 "Hg10 mi
2:53 pm40 °FOvercast.6 mph68%29.97 "Hg10 mi
1:53 pm39 °FMostly cloudy.8 mph70%29.98 "Hg10 mi
12:53 pm36 °FOvercast.8 mph75%30.01 "Hg10 mi
11:53 am35 °FOvercast.7 mph75%30.05 "Hg10 mi
10:53 am35 °FOvercast.10 mph75%30.05 "Hg10 mi
9:53 am34 °FOvercast.10 mph82%30.05 "Hg10 mi
8:53 am34 °FOvercast.9 mph79%30.05 "Hg10 mi
7:53 am33 °FOvercast.8 mph82%30.05 "Hg10 mi
6:53 am33 °FOvercast.10 mph85%30.04 "Hg10 mi
5:53 am33 °FOvercast.9 mph85%30.03 "Hg10 mi
4:53 am33 °FOvercast.9 mph85%30.03 "Hg10 mi
3:53 am34 °FOvercast.12 mph82%30.03 "Hg10 mi
2:53 am34 °FOvercast.10 mph82%30.03 "Hg10 mi
2:05 am34 °FOvercast.10 mph85%30.02 "Hg10 mi
1:53 am34 °FOvercast.13 mph85%30.03 "Hg10 mi
12:53 am34 °FOvercast.13 mph88%30.03 "Hg10 mi
11:53 pm
Sat, Jan 25
34 °FFog.10 mph88%30.02 "Hg4 mi
10:53 pm34 °FOvercast.14 mph88%30.03 "Hg10 mi
9:53 pm35 °FOvercast.15 mph85%30.02 "Hg10 mi
8:53 pm35 °FOvercast.15 mph88%30.01 "Hg8 mi
7:53 pm35 °FOvercast.13 mph88%30.02 "Hg8 mi
6:53 pm36 °FLight rain. Overcast.12 mph85%30.00 "Hg7 mi
5:53 pm36 °FOvercast.15 mph89%29.99 "Hg8 mi
Weather by CustomWeather, © 2020

See weather overview

Advertising